Regional Weather Roundup
Issued by NWS San Diego, CA

Home | Current Version | Previous Version | Text Only | Print | Product List | Glossary On
Versions: 1 2 3 4 5 6 7 8 9 10 11 12 13 14 15 16 17 18 19 20 21 22 23 24 25 26 27 28 29 30 31 32 33 34 35 36 37 38 39 40 41 42 43 44 45 46 47 48 49 50
000
ASUS46 KSGX 260310
RWRSGX

SAN DIEGO HOURLY WEATHER ROUNDUP
NATIONAL WEATHER SERVICE SAN DIEGO CA
800 PM PDT FRI JUL 25 2014

NOTE: "FAIR" INDICATES FEW OR NO CLOUDS BELOW 12,000 FEET WITH NO
SIGNIFICANT WEATHER AND/OR OBSTRUCTIONS TO VISIBILITY.

CAZ042-043-060-061-PZZ750-775-260400-

GREATER SAN DIEGO AREA

CITY           SKY/WX    TMP DP  RH WIND       PRES   REMARKS
LINDBERGH FLD  MOCLDY    73  64  73 CALM      29.91R
POINT LOMA       N/A     69  64  84 W7          N/A
NATIONAL CITY    N/A     73  67  82 CALM      29.90R
CHULA VISTA      N/A     72  67  84 CALM      29.83R
IMPERIAL BEACH PTCLDY    70  66  87 W6        29.90R
BROWN FIELD    CLEAR     72  64  76 NW5       29.90R
MIRAMAR MCAS   PTCLDY    73  63  70 CALM      29.91R
MONTGOMERY FLD CLEAR     73  64  73 S5        29.91R

$$

NORTH SAN DIEGO COUNTY

CITY           SKY/WX    TMP DP  RH WIND       PRES   REMARKS
CAMP PENDLETON CLEAR     72  64  76 S5        29.89R HAZE
OCEANSIDE AP   CLEAR     71  64  78 SW3       29.89R
VISTA            N/A     73  66  79 CALM      29.87R
CARLSBAD       CLEAR     71  65  81 SW3       29.90R
DEL MAR          N/A     68  66  92 CALM      29.92R
LA JOLLA SCRIP   N/A     68  66  92 W2        29.88R
FALLBROOK        N/A     75  68  79 CALM      29.88R
ESCONDIDO        N/A     77  66  67 CALM      29.91R
SAN MARCOS       N/A     74  67  76 CALM      29.87R
POWAY            N/A     76  66  70 CALM      29.90R
R. PENASQUITOS   N/A     74  65  74 CALM      29.90R

$$

EAST SAN DIEGO COUNTY

CITY           SKY/WX    TMP DP  RH WIND       PRES   REMARKS
RAMONA         CLEAR     74  63  68 NW3       29.94R
GILLESPIE FLD  FAIR      77  63  61 NW3       29.92R
LA MESA          N/A     75  66  74 CALM      29.84R
JAMUL            N/A     75  65  70 CALM      29.88R
DESCANSO N       N/A     76  56  49 CALM      29.73R
MT. LAGUNA OBS   N/A     73  38  28 CALM      29.77R
CAMPO            N/A     76  57  51 SW12      29.96R

$$

ORANGE COUNTY AND THE LOS ANGELES BASIN

CITY           SKY/WX    TMP DP  RH WIND       PRES   REMARKS
JOHN WAYNE AP  PTCLDY    74  64  71 S12       29.89R
LAGUNA BEACH     N/A     71  67  85 CALM      29.85R
LAKE FOREST FR   N/A     75  61  62 CALM      29.79R
SANTA ANA        N/A     75  67  75 CALM      29.83R
HUNTINGTON BCH   N/A     70  66  85 S2        29.90R
LOS ALAMITOS   PTCLDY    71  64  79 S5        29.88R
FULLERTON      CLEAR     75  63  66 S6        29.87R
LONG BEACH     CLEAR     71  64  78 VRB3      29.88R
L.A. AP        PTCLDY    70  63  78 W7        29.89R
L.A. DOWNTOWN  PTCLDY    74  64  71 CALM      29.87R

$$

THE INLAND EMPIRE

CITY           SKY/WX    TMP DP  RH WIND       PRES   REMARKS
CORONA         CLEAR     80  64  58 NW7       29.87R
CHINO          MOCLDY    79  63  57 W13       29.89R
ONTARIO        MOCLDY    84  56  38 W12       29.88S
SAN BERNARDINO PTCLDY    84  55  37 SW9       29.89R
RIVERSIDE AP   CLEAR     83  62  49 W8        29.88R
RIV CYN CREST    N/A     84  68  59 W3        29.87R
MORENO VALLEY    N/A     84  62  46 SE1         N/A
MARCH ARB      CLEAR     82  61  47 NW8       29.92R
HORSETHIEF CYN   N/A     83  59  43 W8        29.87R
PERRIS           N/A     83  55  37 S3          N/A
MENIFEE          N/A     83  57  40 SE5       29.95R
HEMET EAST       N/A     84  47  26 CALM      29.86R
FRENCH VALLEY  FAIR      81  55  41 S9        29.93R
TEMECULA         N/A     80  62  54 S5        29.88R

$$

SAN BERNARDINO AND RIVERSIDE COUNTY MOUNTAINS

CITY           SKY/WX    TMP DP  RH WIND       PRES   REMARKS
BIG BEAR AP    CLEAR     68  32  26 W6        30.29R
BIG BEAR SHEA    N/A     71  18  13 NW1       29.82R
ANGELUS OAKS     N/A     72  49  44 MISG      29.72R
PINE COVE        N/A     71  44  38 NW3       29.83R

$$

SOUTHERN DESERT INCLUDING THE COACHELLA VALLEY

CITY           SKY/WX    TMP DP  RH WIND       PRES   REMARKS
PALM SPRINGS   CLEAR     95  70  44 CALM      29.77R HX 101
THOUSAND PALMS   N/A     92  74  55 CALM      29.71R HX 101
THERMAL        PTCLDY    98  61  29 CALM      29.70R HX  98
BLYTHE         MOCLDY   105  61  23 S12       29.75R HX 106
IMPERIAL AP    MOCLDY   101  62  27 S13       29.72R HX 102
EL CENTRO NAS  MOCLDY   101  65  30 S14       29.72R HX 104
YUMA AZ        MOCLDY   102  60  25 S15       29.76R HX 103
MEXICALI       PTCLDY    95  63  34 SE7       29.75  HX  96

$$

UPPER DESERT

CITY           SKY/WX    TMP DP  RH WIND       PRES   REMARKS
VICTORVILLE AP CLEAR     88  36  15 S12       29.95R
HESPERIA         N/A     85  47  26 SW8       29.86R
APPLE VALLEY     N/A     86  42  21 S9G24     30.02R
GRAY BUTTE AP  NOT AVBL
PALMDALE       PTCLDY    88  34  14 SW21      29.92R
LANCASTER      MOCLDY    85  43  22 W15       29.93R
EDWARDS AFB    MOCLDY    89  26  10 SW15G23   29.89R
DAGGETT        PTCLDY    99  40  13 SW20      29.84R
29 PALMS N     PTCLDY    95  46  18 SW9       29.93R
NEEDLES        PTCLDY   104  61  24 S5        29.76R HX 105

$$

REGIONAL REPORTS

CITY           SKY/WX    TMP DP  RH WIND       PRES   REMARKS
SANTA BARBARA  PTCLDY    64  61  88 W8        29.88R
SANDBERG       PTCLDY    78  44  29 S12G18    30.10R
MT. WILSON       N/A     75  18  11 SE3         N/A
LAS VEGAS NV   MOCLDY    99  52  20 S17G28    29.81R HX  96
PHOENIX AZ     CLOUDY    91  60  35 S14G28    29.85F
TIJUANA        PTCLDY    73  61  64 NW7       29.92R
ENSENADA NW      N/A     69  32  25 W1        29.87R

$$

OFFSHORE ISLANDS

CITY           SKY/WX    TMP DP  RH WIND       PRES   REMARKS
CATALINA ARPT  PTCLDY    70  60  70 CALM      29.93S
SAN NICOLAS IS PTCLDY   N/A N/A N/A W9        29.89S

$$

MARINE AND OFFSHORE BUOY REPORTS

STATION/POSITION SKY/WX   TEMP    WIND        PRES    SWELL
                          AIR SEA DIR/SP/G            HT/PER/DIR
                          (F)     (DEG/KT/KT) (MB)    (FT/S/D)
TANNER BANKS               64 67  310/ 10/ 14 1012.5R   7/310/10
S CLEMENTE BASIN           67 71  280/  8/ 12 1011.8R   3/290/ 9
SAN NICOLAS IS.               67                N/A     3/320/11
SO. S. ROSA ISLA           63 66  300/ 12/ 14 1011.9R   7/10
W. S. BARBARA CH           61 61  300/ 10/ 12 1011.4R   7/320/10
M. S. BARBARA CH           61 66  280/ 12/ 16 1011.7
S. MONICA BASIN            68 69   CALM  /  2 1011.6R   2/170/15
S PEDRO CHANNEL               70                N/A     2/180/15
DANA POINT                    72                N/A     2/200/18
CMP PENDLETON NS              72                N/A     2/200/18
OCEANSIDE OFFSHR              72                N/A     2/210/18
TORREY PINES OTR              72                N/A     2/200/18
LA JOLLA 1                    71  250/  5/  5 1012.5
MISSION BAY BUOY              70                N/A     2/190/14
SAN DIEGO BAY                 71              1012.9R
POINT LOMA SOUTH              71                N/A     2/210/18

$$




USA.gov is the U.S. government's official web portal to all federal, state and local government web resources and services.